Powrót do katalogu

STARLINK-35814

AktywnyŁącznośćVLEO
NORAD 66576·PAYLOAD·🇺🇸 United States

Wystrzelony Nov 21, 2025 z Cape Canaveral Space Force Station

Loading…

Następne Przeloty (najbliższe 24 godziny)

TLE

ŚwieżeSource: CelesTrak SupGP

Epoka: Sep 14, 2026, 22:31 UTC

1 66576C 25268V   26257.93868056 -.00017229  00000+0 -62391-3 0  2573
2 66576  43.0035 358.3867 0001634 270.5124  21.0639 15.27592296    12

Śledź STARLINK-35814 w czasie rzeczywistym z AllMySat

Download on the App Store